FW5778 Weather Reports


Display with metric or nautical units.
time (UTC)temp
F
wind
direction
speed
MPH
gust
MPH
rain 1hr
in
rain 24hr
in
rain mn
in
humidity
%
barometer
mb
20260831024618 70 241 1.0 3.0 0.00 0.20 0.16 55 1015.2
20260831024057 70 263 1.0 3.0 0.00 0.20 0.16 55 1015.1
20260831023557 70 30 0.0 0.0 0.00 0.20 0.16 54 1015.1
20260831023057 71 30 0.0 0.0 0.00 0.20 0.16 53 1015.1
20260831022557 71 30 0.0 0.0 0.00 0.20 0.16 52 1015.0
20260831022057 71 30 0.0 0.0 0.00 0.20 0.16 51 1015.0
20260831021557 72 30 0.0 0.0 0.00 0.20 0.16 48 1014.9
20260831021057 72 30 0.0 0.0 0.00 0.20 0.16 48 1014.8
20260831020600 73 30 0.0 0.0 0.00 0.20 0.16 47 1014.7
20260831020056 73 30 0.0 1.0 0.00 0.20 0.16 47 1014.8
20260831015555 74 37 0.0 3.0 0.00 0.24 0.16 46 1014.8
20260831015057 74 350 0.0 5.0 0.00 0.24 0.16 46 1014.8
20260831014556 75 36 1.0 7.0 0.00 0.24 0.16 45 1014.7
20260831014056 75 335 3.0 7.0 0.00 0.24 0.16 44 1014.6
20260831013556 76 7 2.0 4.0 0.00 0.24 0.16 44 1014.7
20260831013108 76 20 2.0 5.0 0.00 0.24 0.16 44 1014.7
20260831012555 76 323 2.0 7.0 0.00 0.24 0.16 43 1014.6
20260831012056 76 20 2.0 5.0 0.00 0.24 0.16 43 1014.7
20260831011557 76 26 0.0 2.0 0.00 0.24 0.16 43 1014.7
20260831011054 76 328 0.0 5.0 0.00 0.24 0.16 43 1014.8
20260831010556 76 321 2.0 7.0 0.00 0.24 0.16 43 1014.8
20260831010118 76 15 2.0 6.0 0.00 0.24 0.16 43 1014.9
20260831005554 77 32 3.0 6.0 0.00 0.24 0.16 43 1014.9
20260831005054 77 29 3.0 8.0 0.00 0.24 0.16 44 1014.9
20260831004556 77 2 1.0 8.0 0.00 0.24 0.16 45 1014.9
20260831004055 77 33 4.0 8.0 0.00 0.24 0.16 44 1014.9
20260831003553 77 307 4.0 9.0 0.00 0.24 0.16 44 1014.9
20260831003053 76 323 4.0 10.0 0.00 0.24 0.16 44 1015.0
20260831002553 76 34 3.0 10.0 0.00 0.24 0.16 44 1015.1
20260831002054 77 38 4.0 9.0 0.00 0.24 0.16 45 1015.1
20260831001555 77 14 3.0 9.0 0.00 0.24 0.16 44 1015.0
20260831001153 77 4 4.0 8.0 0.00 0.24 0.16 45 1015.0
20260831000552 77 53 5.0 9.0 0.00 0.24 0.16 44 1014.9
20260831000110 77 51 4.0 9.0 0.00 0.24 0.16 45 1014.9
20260830235551 77 30 4.0 10.0 0.00 0.24 0.16 44 1014.8
20260830235051 78 52 4.0 10.0 0.00 0.24 0.16 44 1014.8
20260830234551 77 46 4.0 7.0 0.00 0.24 0.16 44 1014.8
20260830234051 77 49 2.0 7.0 0.00 0.24 0.16 45 1014.9
20260830233552 77 58 2.0 7.0 0.00 0.24 0.16 45 1015.0
20260830233051 76 75 0.0 5.0 0.00 0.24 0.16 46 1015.1
20260830232551 76 120 2.0 9.0 0.00 0.24 0.16 46 1015.1
20260830232051 75 135 3.0 7.0 0.00 0.24 0.16 49 1015.1
20260830231553 75 65 3.0 8.0 0.00 0.24 0.16 50 1015.1
20260830231049 77 101 3.0 7.0 0.00 0.24 0.16 47 1015.1
20260830230549 77 37 1.0 8.0 0.00 0.24 0.16 43 1015.2
20260830230054 77 63 4.0 8.0 0.00 0.24 0.16 44 1015.1
20260830225549 77 317 4.0 10.0 0.00 0.25 0.16 45 1015.1
20260830225048 77 335 5.0 10.0 0.00 0.25 0.16 45 1015.1
20260830224548 77 330 4.0 12.0 0.00 0.25 0.16 43 1015.2
20260830224048 78 321 4.0 12.0 0.00 0.25 0.16 42 1015.1
20260830223552 78 327 6.0 12.0 0.00 0.25 0.16 42 1015.0
20260830223119 78 1 5.0 12.0 0.00 0.25 0.16 41 1015.1
20260830222551 78 304 5.0 11.0 0.00 0.25 0.16 40 1015.1
20260830222047 79 37 6.0 11.0 0.00 0.25 0.16 40 1015.1
20260830221552 79 344 2.0 8.0 0.00 0.25 0.16 41 1015.2
20260830221048 80 34 3.0 8.0 0.00 0.25 0.16 39 1015.1
20260830220547 80 186 0.0 4.0 0.00 0.25 0.16 38 1015.3
20260830220046 80 118 2.0 4.0 0.00 0.25 0.16 37 1015.5
20260830215545 80 169 0.0 5.0 0.00 0.25 0.16 42 1015.4
20260830215044 79 137 1.0 5.0 0.00 0.25 0.16 41 1015.3
20260830214543 79 121 0.0 4.0 0.00 0.25 0.16 41 1015.4
20260830214042 78 290 1.0 4.0 0.00 0.25 0.16 42 1015.5
20260830213543 78 197 2.0 4.0 0.00 0.25 0.16 43 1015.6
20260830213042 77 219 0.0 1.0 0.00 0.25 0.16 44 1015.5
20260830212541 76 199 0.0 5.0 0.00 0.25 0.16 45 1015.5
20260830212041 76 226 1.0 5.0 0.00 0.25 0.16 46 1015.6
20260830211541 76 193 2.0 4.0 0.00 0.25 0.16 47 1015.7
20260830211041 76 230 0.0 3.0 0.00 0.25 0.16 48 1015.8
20260830210539 76 160 0.0 6.0 0.00 0.25 0.16 48 1015.8
20260830210040 76 137 2.0 5.0 0.00 0.25 0.16 48 1015.9
20260830205538 76 161 1.0 5.0 0.00 0.25 0.16 48 1016.2
20260830205039 76 125 0.0 9.0 0.00 0.25 0.16 45 1016.2
20260830204538 76 129 2.0 9.0 0.00 0.25 0.16 46 1016.0
20260830204037 76 154 4.0 9.0 0.00 0.25 0.16 46 1015.8
20260830203537 77 108 1.0 10.0 0.00 0.25 0.16 47 1015.9
20260830203037 77 123 5.0 10.0 0.00 0.25 0.16 45 1016.2
20260830202538 78 143 2.0 8.0 0.00 0.25 0.16 47 1016.1
20260830202036 78 117 2.0 11.0 0.00 0.25 0.16 47 1016.2
20260830201537 78 176 6.0 13.0 0.00 0.25 0.16 47 1016.2
20260830201033 78 155 4.0 13.0 0.00 0.25 0.16 49 1016.0
20260830200532 78 124 5.0 11.0 0.00 0.25 0.16 50 1016.0
20260830200031 78 135 5.0 11.0 0.00 0.25 0.16 49 1016.2
20260830195533 77 126 7.0 13.0 0.00 0.25 0.16 50 1016.3
20260830195033 77 134 7.0 13.0 0.00 0.25 0.16 50 1016.3
20260830194533 77 134 5.0 13.0 0.00 0.25 0.16 50 1016.3
20260830194029 77 148 4.0 17.0 0.00 0.25 0.16 51 1016.3
20260830193529 77 200 8.0 17.0 0.00 0.25 0.16 50 1016.4
20260830193033 76 155 4.0 15.0 0.00 0.25 0.16 52 1016.3
20260830192526 76 134 7.0 15.0 0.00 0.25 0.16 51 1016.4
20260830192027 76 148 8.0 14.0 0.00 0.25 0.16 51 1016.5
20260830191525 76 146 5.0 13.0 0.00 0.25 0.16 51 1016.6
20260830191024 75 119 7.0 14.0 0.00 0.25 0.16 51 1016.7
20260830190523 75 134 8.0 14.0 0.00 0.25 0.16 50 1016.8
20260830190027 75 173 7.0 15.0 0.00 0.25 0.16 52 1016.9
20260830185525 75 129 8.0 15.0 0.00 0.25 0.16 51 1016.9
20260830185023 75 101 7.0 17.0 0.00 0.25 0.16 49 1016.9
20260830184528 75 137 7.0 16.0 0.00 0.25 0.16 50 1017.0
20260830184021 75 190 8.0 14.0 0.00 0.25 0.16 52 1016.9
20260830183521 75 136 5.0 12.0 0.00 0.25 0.16 53 1016.9
20260830183024 75 136 7.0 13.0 0.00 0.25 0.16 51 1016.9
20260830182521 75 144 7.0 14.0 0.00 0.25 0.16 53 1016.9
20260830182018 74 196 7.0 15.0 0.00 0.25 0.16 53 1016.9
20260830181517 74 136 8.0 15.0 0.00 0.25 0.16 55 1016.9
20260830180513 74 117 6.0 16.0 0.00 0.25 0.16 57 1016.9
20260830180012 73 164 8.0 19.0 0.00 0.62 0.16 57 1016.9
20260830175513 73 173 8.0 19.0 0.00 0.62 0.16 58 1016.9
20260830175009 73 148 7.0 15.0 0.00 0.62 0.16 59 1017.0
20260830174508 73 166 7.0 15.0 0.00 0.62 0.16 57 1017.0
20260830174006 73 104 8.0 13.0 0.00 0.62 0.16 57 1017.0
20260830173505 73 163 8.0 15.0 0.00 0.62 0.16 57 1017.0
20260830173003 72 119 7.0 16.0 0.00 0.62 0.16 58 1017.0
20260830172504 72 140 8.0 16.0 0.00 0.62 0.16 58 1017.0
20260830172005 72 152 7.0 14.0 0.00 0.62 0.16 59 1017.0
20260830171502 72 122 7.0 13.0 0.00 0.62 0.16 59 1017.1
20260830171001 72 209 7.0 14.0 0.00 0.62 0.16 60 1017.1
20260830170601 72 113 9.0 14.0 0.00 0.62 0.16 60 1017.0
20260830170059 71 153 4.0 11.0 0.00 0.62 0.16 64 1017.0
20260830165557 71 122 6.0 14.0 0.00 0.62 0.16 64 1017.1
20260830165057 71 120 7.0 14.0 0.00 0.62 0.16 63 1017.1
20260830164556 70 167 7.0 14.0 0.00 0.62 0.16 64 1017.1
20260830164057 70 138 7.0 14.0 0.00 0.62 0.16 64 1017.0
20260830163557 70 153 7.0 14.0 0.00 0.62 0.16 64 1017.0
20260830163055 70 172 7.0 12.0 0.00 0.62 0.16 64 1016.9
20260830162553 70 154 6.0 12.0 0.00 0.62 0.16 64 1016.9
20260830162052 69 171 6.0 11.0 0.00 0.62 0.16 63 1016.8
20260830161552 69 158 5.0 11.0 0.00 0.62 0.16 64 1016.8
20260830161051 69 159 4.0 11.0 0.00 0.62 0.16 65 1016.9
20260830160550 68 144 2.0 10.0 0.00 0.62 0.16 69 1016.9
20260830160047 68 151 3.0 12.0 0.01 0.62 0.16 69 1016.7
20260830155547 68 125 5.0 10.0 0.01 0.62 0.16 69 1016.6
20260830155050 68 165 3.0 10.0 0.01 0.62 0.16 69 1016.8
20260830154545 67 173 3.0 10.0 0.01 0.62 0.16 71 1016.7
20260830154044 66 140 3.0 10.0 0.01 0.62 0.16 74 1016.7
20260830153541 65 163 4.0 10.0 0.01 0.62 0.16 77 1016.8
20260830153041 65 145 2.0 8.0 0.01 0.62 0.16 78 1016.8
20260830152541 65 142 2.0 8.0 0.01 0.62 0.16 79 1016.8
20260830152045 65 167 1.0 4.0 0.01 0.62 0.16 80 1016.8
20260830151544 64 164 2.0 5.0 0.01 0.62 0.16 81 1016.7
20260830151040 64 172 2.0 6.0 0.01 0.62 0.16 81 1016.6
20260830150540 64 135 2.0 6.0 0.01 0.62 0.16 83 1016.8
20260830150041 63 147 1.0 5.0 0.00 0.61 0.15 84 1016.8
20260830145539 63 157 1.0 5.0 0.00 0.78 0.15 84 1016.7
20260830145039 62 167 1.0 4.0 0.00 0.78 0.15 84 1016.8
20260830144545 62 238 0.0 4.0 0.00 0.78 0.15 84 1016.7
20260830144039 62 172 2.0 6.0 0.00 0.78 0.15 84 1016.7
20260830143539 62 189 2.0 6.0 0.00 0.78 0.15 83 1016.6
20260830143041 62 224 1.0 4.0 0.00 0.78 0.15 85 1016.6
20260830142539 62 217 0.0 3.0 0.00 0.78 0.15 87 1016.8
20260830142042 61 243 0.0 3.0 0.00 0.78 0.15 89 1016.7
20260830141541 60 216 0.0 3.0 0.00 0.78 0.15 90 1016.7
20260830141038 60 225 1.0 4.0 0.00 0.78 0.15 90 1016.7
20260830140537 59 217 1.0 5.0 0.00 0.78 0.15 91 1016.7
20260830140037 59 236 2.0 5.0 0.00 0.78 0.15 91 1016.7
20260830135540 59 233 2.0 5.0 0.00 0.78 0.15 91 1016.6
20260830135037 59 262 3.0 5.0 0.00 0.78 0.15 91 1016.6
20260830134542 59 247 0.0 2.0 0.00 0.78 0.15 91 1016.6
20260830134037 59 209 0.0 2.0 0.00 0.78 0.15 90 1016.5
20260830133536 59 153 0.0 5.0 0.00 0.78 0.15 91 1016.3
20260830133036 59 191 2.0 5.0 0.00 0.78 0.15 91 1016.4
20260830132537 59 209 2.0 4.0 0.00 0.78 0.15 92 1016.5
20260830132041 59 264 0.0 4.0 0.00 0.78 0.15 92 1016.2
20260830131538 59 245 2.0 4.0 0.00 0.78 0.15 92 1016.4
20260830131036 59 243 1.0 4.0 0.00 0.78 0.15 92 1016.4
20260830130535 59 230 1.0 4.0 0.00 0.78 0.15 92 1016.4
20260830130043 59 241 1.0 3.0 0.00 0.78 0.15 92 1016.3
20260830125535 59 273 0.0 1.0 0.00 0.78 0.15 92 1016.3
20260830125034 59 248 0.0 0.0 0.00 0.78 0.15 92 1016.0
20260830124534 59 248 0.0 0.0 0.00 0.78 0.15 92 1016.1
20260830124037 59 247 0.0 1.0 0.00 0.78 0.15 92 1016.4
20260830123535 59 148 0.0 3.0 0.00 0.78 0.15 91 1016.0
20260830123038 59 144 0.0 3.0 0.00 0.78 0.15 91 1016.2
20260830122534 59 250 0.0 3.0 0.01 0.78 0.15 91 1016.3
20260830122033 59 137 0.0 4.0 0.09 0.78 0.15 91 1016.1
20260830121534 59 108 1.0 10.0 0.15 0.78 0.15 91 1016.1
20260830121037 59 103 3.0 10.0 0.15 0.78 0.15 91 1015.9
20260830120532 59 131 0.0 0.0 0.15 0.78 0.15 90 1016.1
20260830120031 59 137 0.0 2.0 0.15 0.78 0.15 89 1015.7
20260830115532 59 137 0.0 3.0 0.15 0.78 0.15 89 1015.6
20260830115030 59 137 0.0 3.0 0.15 0.78 0.15 88 1015.7
20260830114530 59 119 0.0 2.0 0.15 0.78 0.15 87 1015.6
20260830114032 59 124 0.0 2.0 0.15 0.78 0.15 87 1015.8
20260830113528 60 135 0.0 6.0 0.15 0.78 0.15 86 1016.0
20260830113028 60 170 0.0 11.0 0.15 0.78 0.15 84 1015.7
20260830112527 61 229 4.0 12.0 0.14 0.77 0.14 84 1015.7
20260830112026 62 243 8.0 12.0 0.01 0.64 0.01 85 1016.8
20260830111525 61 221 3.0 8.0 0.00 0.63 0.00 85 1015.6
20260830111025 61 146 2.0 3.0 0.00 0.63 0.00 85 1014.8
20260830110525 61 174 0.0 0.0 0.00 0.63 0.00 84 1014.9
20260830110024 61 178 0.0 0.0 0.00 0.63 0.00 84 1015.2
20260830105524 61 178 0.0 0.0 0.00 0.64 0.00 84 1015.3
20260830105024 61 218 0.0 2.0 0.00 0.64 0.00 84 1015.5
20260830104523 61 183 0.0 4.0 0.00 0.64 0.00 83 1015.4
20260830104023 61 157 1.0 6.0 0.00 0.64 0.00 83 1015.3
20260830103523 61 148 3.0 6.0 0.00 0.64 0.00 83 1015.3
20260830103027 61 143 1.0 3.0 0.00 0.64 0.00 83 1015.3
20260830102526 61 131 0.0 1.0 0.00 0.64 0.00 83 1015.4
20260830102023 60 187 0.0 0.0 0.00 0.64 0.00 83 1015.7
20260830101522 60 189 0.0 0.0 0.00 0.64 0.00 82 1015.8
20260830101023 60 189 0.0 0.0 0.00 0.64 0.00 81 1015.8
20260830100520 61 189 0.0 0.0 0.00 0.64 0.00 80 1015.7
20260830100024 61 189 0.0 0.0 0.00 0.64 0.00 79 1015.4
20260830095517 62 181 0.0 0.0 0.00 0.64 0.00 78 1015.2
20260830095017 62 181 0.0 0.0 0.00 0.64 0.00 77 1015.1
20260830094515 62 217 0.0 2.0 0.00 0.64 0.00 76 1015.1
20260830094016 62 217 0.0 3.0 0.00 0.64 0.00 77 1015.2
20260830093514 63 186 0.0 3.0 0.00 0.64 0.00 77 1015.3
20260830093021 63 142 0.0 4.0 0.00 0.64 0.00 77 1015.5
20260830092513 63 166 1.0 5.0 0.00 0.64 0.00 78 1015.5
20260830092013 63 191 1.0 6.0 0.00 0.64 0.00 78 1015.5
20260830091520 63 177 2.0 6.0 0.00 0.64 0.00 79 1015.5
20260830091013 63 212 2.0 6.0 0.00 0.64 0.00 79 1015.4
20260830090512 63 226 3.0 8.0 0.00 0.64 0.00 79 1015.4
20260830090012 63 218 4.0 8.0 0.00 0.64 0.00 79 1015.5
20260830085513 63 214 2.0 6.0 0.00 0.64 0.00 79 1015.4
20260830085010 63 153 2.0 6.0 0.00 0.64 0.00 78 1015.2
20260830084533 63 146 1.0 6.0 0.00 0.64 0.00 78 1015.4
20260830084010 64 217 1.0 9.0 0.00 0.64 0.00 79 1015.8
20260830083510 64 232 5.0 9.0 0.00 0.64 0.00 78 1016.0
20260830083011 64 255 3.0 9.0 0.00 0.64 0.00 78 1015.6
20260830082507 64 172 4.0 13.0 0.00 0.64 0.00 79 1015.5
20260830082007 63 157 5.0 14.0 0.00 0.64 0.00 80 1015.1
20260830081507 64 161 7.0 12.0 0.00 0.64 0.00 81 1015.2
20260830081005 64 129 4.0 12.0 0.00 0.64 0.00 79 1014.9
20260830080505 64 158 7.0 12.0 0.00 0.64 0.00 78 1015.5
20260830080004 64 141 4.0 8.0 0.00 0.64 0.00 79 1015.1
20260830075504 64 152 4.0 10.0 0.00 0.64 0.00 78 1015.0
20260830075004 64 145 6.0 10.0 0.00 0.64 0.00 78 1015.0
20260830074504 64 174 3.0 14.0 0.00 0.64 0.00 78 1014.8
20260830074002 64 187 3.0 14.0 0.00 0.64 0.00 78 1014.8
20260830073503 65 167 5.0 14.0 0.00 0.64 0.00 77 1015.2
20260830073002 65 159 3.0 9.0 0.00 0.64 0.00 76 1015.2
20260830072504 65 162 4.0 11.0 0.00 0.64 0.00 76 1015.3
20260830072002 65 148 3.0 7.0 0.00 0.64 0.00 74 1015.1
20260830071607 65 147 0.0 7.0 0.00 0.64 0.00 73 1014.9
20260830071101 65 144 0.0 5.0 0.00 0.64 0.00 74 1014.8
20260830070559 65 93 1.0 10.0 0.00 0.64 0.00 75 1014.8
20260830065558 65 245 4.0 12.0 0.00 0.64 0.00 75 1015.1
20260830065056 65 169 5.0 13.0 0.00 0.64 0.00 74 1014.7
20260830064556 65 143 4.0 15.0 0.00 0.64 0.00 75 1014.3
20260830064055 65 203 6.0 15.0 0.00 0.64 0.00 75 1014.4
20260830063555 65 179 5.0 17.0 0.00 0.64 0.00 74 1014.3
20260830063055 65 195 8.0 17.0 0.00 0.64 0.00 74 1014.4
20260830062554 65 214 6.0 15.0 0.00 0.64 0.00 74 1014.3
20260830062052 65 230 8.0 15.0 0.00 0.64 0.00 73 1014.1
20260830061552 64 150 5.0 13.0 0.00 0.64 0.00 73 1014.4
20260830061050 64 235 5.0 13.0 0.00 0.64 0.00 75 1014.3
20260830060548 64 221 4.0 13.0 0.00 0.64 0.00 77 1014.3
20260830060047 63 248 4.0 13.0 0.00 0.64 0.00 79 1014.4
20260830055547 63 141 5.0 12.0 0.01 0.64 0.64 80 1014.2
20260830055046 62 134 5.0 15.0 0.02 0.64 0.64 84 1014.3
20260830054546 61 183 5.0 15.0 0.02 0.64 0.64 89 1014.3
20260830054049 60 167 4.0 13.0 0.02 0.64 0.64 92 1014.4
20260830053545 60 161 4.0 12.0 0.03 0.64 0.64 93 1014.5
20260830053045 59 153 6.0 17.0 0.03 0.64 0.64 93 1014.2
20260830052545 59 125 9.0 17.0 0.03 0.64 0.64 93 1014.1
20260830052045 59 139 4.0 17.0 0.04 0.64 0.64 93 1014.1
20260830051545 59 137 6.0 19.0 0.04 0.64 0.64 92 1013.4
20260830051045 58 144 8.0 23.0 0.04 0.64 0.64 92 1014.0
20260830050544 58 127 14.0 23.0 0.04 0.64 0.64 92 1014.2
20260830050043 59 153 14.0 22.0 0.04 0.64 0.64 91 1015.3
20260830045540 59 191 9.0 21.0 0.03 0.63 0.63 90 1015.6
20260830045040 60 164 11.0 21.0 0.02 0.62 0.62 89 1016.4
20260830044543 61 156 3.0 19.0 0.02 0.62 0.62 87 1015.8
20260830044042 64 141 8.0 24.0 0.01 0.61 0.61 71 1015.5
20260830043539 65 165 12.0 24.0 0.01 0.61 0.61 70 1015.2
20260830043044 64 127 10.0 23.0 0.01 0.61 0.61 71 1015.1
20260830042539 65 152 12.0 23.0 0.01 0.61 0.61 71 1015.3
20260830042040 65 152 12.0 21.0 0.00 0.60 0.60 70 1015.4
20260830041545 65 146 10.0 20.0 0.00 0.60 0.60 70 1015.3
20260830041037 65 169 8.0 15.0 0.00 0.60 0.60 70 1015.0
20260830040537 65 127 7.0 14.0 0.00 0.60 0.60 68 1014.9
20260830040037 66 129 7.0 14.0 0.00 0.60 0.60 66 1014.6
20260830035538 66 91 5.0 17.0 0.00 0.60 0.60 65 1015.1
20260830035038 67 173 10.0 18.0 0.00 0.60 0.60 62 1015.2
20260830034536 67 168 8.0 22.0 0.00 0.60 0.60 61 1015.2
20260830034038 67 117 8.0 16.0 0.00 0.60 0.60 60 1014.3
20260830033539 67 132 4.0 13.0 0.00 0.60 0.60 61 1014.3
20260830033044 66 219 6.0 13.0 0.00 0.60 0.60 62 1014.4
20260830032535 66 207 5.0 11.0 0.00 0.60 0.60 63 1014.0
20260830032035 66 213 5.0 14.0 0.00 0.60 0.60 64 1013.8
20260830031535 66 216 4.0 11.0 0.00 0.60 0.60 64 1013.6
20260830031037 66 248 6.0 11.0 0.00 0.60 0.60 64 1013.4
20260830030534 66 261 6.0 12.0 0.00 0.60 0.60 64 1013.2
20260830030035 66 243 5.0 12.0 0.00 0.60 0.60 64 1013.0
20260830025535 65 221 5.0 11.0 0.00 0.60 0.60 67 1013.2
20260830025034 65 207 5.0 9.0 0.00 0.60 0.60 72 1013.1